Preview of NWS' New Version of Forecast
This preview is not operational and should not be used for support decisions.

Regional Weather Roundup (RWR)

Issued by National Weather Service (NWS)

                            
000
ASPQ40 PGUM 190610
RWRPQ 
WEATHER ROUNDUP FOR THE MARIANAS AND MICRONESIA
NATIONAL WEATHER SERVICE TIYAN GU
400 PM CHST MON AUG 19 2019

GUZ001>004-190700-
MARIANA ISLANDS-
  
CITY           SKY/WX    TMP DP  RH WIND       PRES   REMARKS
GUAM AIRPORT   MOSUNNY   84  75  74 S7        29.74F HX  92           
ANDERSEN AFB   PTSUNNY   81  75  83 SE7       29.75F                  
ROTA AIRPORT   PTSUNNY   79  77  94 SE14      29.71F                  
TINIAN AP      MOSUNNY   88  77  70 SE9       29.73S HX 100           
SAIPAN AP      PTSUNNY   84  79  84 S16       29.75S HX  96           

$$

PMZ161-190700-
REPUBLIC OF PALAU-
  
CITY           SKY/WX    TMP DP  RH WIND       PRES   REMARKS
KOROR AP       LGT RAIN  77  73  88 W9G16     29.74F                  
KOROR WSO      NOT AVBL                                               

$$

PMZ171>174-190700-
FEDERATED STATES OF MICRONESIA-
  
CITY           SKY/WX    TMP DP  RH WIND       PRES   REMARKS
YAP AIRPORT    HVY RAIN  81  75  83 SW8       29.74S                  
CHUUK AP       CLOUDY    86  81  84 NW7       29.75S HX 102           
POHNPEI AP     NOT AVBL                                               
POHNPEI WSO    CLOUDY    86  77  74 NW3       29.79S HX  97           
KOSRAE AP      NOT AVBL                                               

$$

PMZ181-190700-
REPUBLIC OF THE MARSHALL ISLANDS-
  
CITY           SKY/WX    TMP DP  RH WIND       PRES   REMARKS
KWAJALEIN AP   SUNNY     84  75  74 NW3       29.76S HX  92           
MAJURO AP      PTSUNNY   86  77  74 SW10      29.77R HX  97           
MAJURO WSO     PTSUNNY   84  77  79 W12       29.76R HX  94           

$$